EHI
0 0 0 0 0 0 0 0 0 0 0 0 0 0 0 0 0 0 0 0 0 0 0 0 0 0 0 0 0 0 0 0 1 2 3 4 5 6 7 8 6 5 4
0 0 0 0 0 0 0 0 0 0 0 0 0 0 0 0 0 0 0 0 0 0 0 0 0 0 0 0 0 0 0 0 0 1 2 4 5 6 8 7 6 5 4
0 0 0 0 0 0 0 0 0 0 0 0 0 0 0 0 0 0 0 0 0 0 0 0 0 0 0 0 0 0 0 0 0 0 1 2 4 5 7 6 6 8 5
0 0 0 0 0 0 0 0 0 0 0 0 0 0 0 0 0 0 0 0 0 0 0 0 0 0 0 0 0 0 0 0 0 0 0 1 2 4 5 4 6 8 6
0 0 0 0 0 0 0 0 0 0 0 0 0 0 0 0 0 0 0 0 0 0 0 0 0 0 0 0 0 0 0 0 0 0 0 0 2 4 4 2 3 5 4
0 0 0 0 0 0 0 0 0 0 0 0 0 0 0 0 0 0 0 0 0 0 0 0 0 0 0 0 0 0 0 0 0 0 0 0 2 4 3 1 1 2 2
0 0 0 0 0 0 0 0 0 0 0 0 0 0 0 0 0 0 0 0 0 0 0 0 0 0 0 0 0 0 0 0 0 0 0 0 1 3 3 2 2 2 2
0 0 0 0 0 0 0 0 0 0 0 0 0 0 0 0 0 0 0 0 0 0 0 0 0 0 0 0 0 0 0 0 0 0 0 0 1 1 2 2 3 3 4
0 0 0 0 0 0 0 0 0 0 0 0 0 0 0 0 0 0 0 0 0 0 0 0 0 0 0 0 0 0 0 0 0 0 0 0 0 0 1 1 2 2 3
0 0 0 0 0 0 0 0 0 0 0 0 0 0 0 0 0 0 0 0 0 0 0 0 0 0 0 0 0 0 0 0 0 0 0 0 0 0 0 0 0 1 2
0 0 0 0 0 0 0 0 0 0 0 0 0 0 0 0 0 0 0 0 0 0 0 0 0 0 0 0 0 0 0 0 0 0 0 0 0 0 0 0 0 1 1
0 0 0 0 0 0 0 0 0 0 0 0 0 0 0 0 0 0 0 0 0 0 0 0 0 0 0 0 0 0 0 0 0 0 0 0 0 0 0 0 0 0 1
0 0 0 0 0 0 0 0 0 0 0 0 0 0 0 0 0 0 0 0 0 0 0 0 0 0 0 0 0 0 0 0 0 0 0 0 0 0 0 0 0 0 0
0 0 0 0 0 0 0 0 0 0 0 0 0 0 0 0 0 0 0 0 0 0 0 0 0 0 0 0 0 0 0 0 0 0 0 0 0 0 0 0 0 0 0
0 0 0 0 0 0 0 0 0 0 0 0 0 0 0 0 0 0 0 0 0 0 0 0 0 0 0 0 0 0 0 0 0 0 0 0 0 0 0 0 0 0 0
0 0 0 0 0 0 0 0 0 0 0 0 0 0 0 0 0 0 0 0 0 0 0 0 0 0 0 0 0 0 0 0 0 0 0 0 0 0 0 0 0 0 0
0 0 0 0 0 0 0 0 0 0 0 0 0 0 0 0 0 0 0 0 0 0 0 0 0 0 0 0 0 0 0 0 0 0 0 0 0 0 0 0 0 0 0
0 0 0 0 0 0 0 0 0 0 0 0 0 0 0 0 0 0 0 0 0 0 0 0 0 0 0 0 0 0 0 0 0 0 0 0 0 0 0 0 0 0 0
0 0 0 0 0 0 0 0 0 0 0 0 0 0 0 0 0 0 0 0 0 0 0 0 0 0 0 0 0 0 0 0 0 0 0 0 0 0 0 0 0 0 0
0 0 0 0 0 0 0 0 0 0 0 0 0 0 0 0 0 0 0 0 0 0 0 0 0 0 0 0 0 0 0 0 0 0 0 0 0 0 0 0 0 0 0
0 0 0 0 0 0 0 0 0 0 0 0 0 0 0 0 0 0 0 0 0 0 0 0 0 0 0 0 0 0 0 0 0 0 0 0 0 0 0 0 0 0 0
0 0 0 0 0 0 0 0 0 0 0 0 0 0 0 0 0 0 0 0 0 0 0 0 0 0 0 0 0 0 0 0 0 0 0 0 0 0 0 0 0 0 0
0 0 0 0 0 0 0 0 0 0 0 0 0 0 0 0 0 0 0 0 0 0 0 0 0 0 0 0 0 0 0 0 0 0 0 0 0 0 0 0 0 0 0
0 0 0 0 0 0 0 0 0 0 0 0 0 0 0 0 0 0 0 0 0 0 0 0 0 0 0 0 0 0 0 0 0 0 0 0 0 0 0 0 0 0 0
0 0 0 0 0 0 0 0 0 0 0 0 0 0 0 0 0 0 0 0 0 0 0 0 0 0 0 0 0 0 0 0 0 0 0 0 0 0 0 0 0 0 0
0 0 0 0 0 0 0 0 0 0 0 0 0 0 0 0 0 0 0 0 0 0 0 0 0 0 0 0 0 0 0 0 0 0 0 0 0 0 0 0 0 0 0
Wind_Speed
6 7 7 7 7 7 7 8 8 8 8 9 9 9 9 9 9 9 10 10 10 10 10 10 10 10 8 7 7 7 7 7 8 7 5 4 5 6 5 6 8 9 10
6 6 7 7 7 8 8 8 8 8 9 9 9 9 10 10 9 10 11 11 11 11 10 10 10 9 9 8 7 8 7 7 7 8 6 5 6 6 5 5 6 8 8
6 7 7 7 7 8 8 8 8 9 9 9 9 10 10 10 10 10 10 10 11 11 10 10 10 10 9 8 8 8 7 7 7 7 6 4 4 4 4 5 4 3 6
7 8 7 8 8 8 8 8 8 9 9 9 9 9 10 10 10 10 10 10 10 10 10 10 10 10 10 9 8 9 8 7 7 7 6 5 4 5 5 5 4 4 4
7 8 8 8 8 8 8 8 8 9 9 9 9 9 9 9 8 8 9 10 10 10 10 9 10 9 8 8 8 7 7 7 7 6 5 5 4 5 5 4 5 4 4
7 7 7 8 8 8 8 8 8 8 9 9 9 9 9 7 4 5 9 11 11 11 10 9 9 9 9 9 10 9 8 8 8 6 5 5 5 5 4 5 5 6 4
7 7 7 8 8 8 9 9 9 9 9 9 9 9 9 7 3 6 8 11 12 10 10 8 8 7 7 9 10 11 10 9 8 8 7 5 5 4 5 6 6 6 5
7 7 7 8 9 9 9 9 9 8 8 8 8 9 9 6 3 6 8 11 12 11 10 9 9 7 7 7 8 8 8 7 8 8 6 5 4 4 4 4 4 4 3
7 7 8 8 9 9 9 9 8 8 8 8 8 8 9 7 3 5 8 9 9 10 9 8 8 8 4 5 7 7 7 6 4 3 1 1 1 1 3 3 5 5 4
7 8 8 8 8 9 9 9 8 8 8 8 8 8 8 8 3 4 7 8 8 7 6 6 5 6 3 4 7 8 8 7 6 6 5 4 5 5 5 6 6 6 5
7 7 8 7 8 8 8 8 8 8 8 8 8 8 7 6 4 3 5 7 7 7 6 5 2 6 6 6 7 7 6 5 6 6 6 6 5 5 5 6 5 5 5
7 7 8 7 8 7 7 7 7 7 8 7 6 7 5 3 3 2 4 6 8 8 6 5 1 4 5 6 6 4 4 5 6 6 5 6 6 5 5 5 5 5 4
7 7 7 8 7 7 7 8 7 6 6 6 6 6 6 5 2 4 6 7 8 7 5 4 3 3 5 7 8 7 7 8 7 6 6 6 5 5 4 4 5 4 4
8 7 7 7 7 6 6 6 6 6 6 6 7 7 7 6 5 5 4 4 6 7 6 4 7 7 8 6 6 9 9 7 6 6 6 5 5 6 6 5 5 5 5
8 7 7 6 6 6 6 5 6 6 5 7 8 7 8 7 7 8 8 7 6 5 5 4 4 4 6 6 6 6 7 7 7 7 6 6 6 6 6 6 6 6 6
7 6 6 6 5 6 6 5 4 6 5 8 9 9 7 6 8 9 8 8 8 7 6 5 4 4 4 5 5 6 6 6 6 6 6 6 6 6 6 6 7 7 7
7 7 6 6 6 6 6 7 6 4 9 10 10 10 10 10 10 10 9 8 7 5 5 5 3 3 3 4 4 4 5 5 5 6 6 6 6 6 6 6 7 7 7
8 6 6 6 6 6 6 7 6 7 6 3 5 8 7 7 8 8 7 6 5 5 4 4 3 3 3 3 4 4 4 4 5 6 6 6 7 7 7 7 7 8 7
7 6 5 6 7 7 7 7 6 7 6 6 4 1 5 6 7 7 5 5 4 3 3 3 3 3 3 3 3 4 4 4 5 6 6 7 7 7 7 7 7 8 8
6 5 6 8 7 6 6 6 6 6 6 5 5 5 4 4 3 1 3 3 3 3 3 3 3 3 3 3 3 4 4 5 5 6 6 7 7 7 7 9 8 7 8
6 5 7 8 7 6 6 6 6 6 6 5 4 3 4 6 5 5 4 4 4 4 3 3 3 3 3 3 3 4 5 5 5 5 6 6 7 7 7 7 8 8 7
6 6 6 6 6 5 6 7 6 6 6 5 4 1 3 4 4 4 4 4 4 3 3 3 4 3 3 3 3 4 5 5 4 5 6 6 6 7 7 7 7 7 8
8 8 7 6 6 5 6 6 6 6 6 5 4 4 3 3 3 4 4 4 4 4 3 3 3 3 3 3 3 3 4 4 4 5 6 6 7 7 7 8 9 9 9
8 8 7 7 6 6 6 5 5 5 5 5 5 4 4 4 4 4 4 4 4 4 4 3 3 4 5 4 3 3 2 3 5 5 8 7 7 7 7 8 9 10 9
8 8 8 7 7 6 6 5 5 5 5 4 5 4 4 4 4 4 3 3 4 3 4 4 3 4 5 5 4 4 4 4 5 5 6 7 8 8 8 9 9 9 10
8 8 8 7 6 6 6 5 5 5 5 4 4 4 4 4 4 3 3 3 4 3 3 3 4 5 5 4 4 5 4 4 4 5 6 6 7 7 7 7 9 9 10
Wind_Direction
323 321 316 313 311 305 297 299 300 299 299 292 291 290 287 283 279 273 271 273 266 265 263 257 254 255 256 254 248 248 248 247 260 267 258 255 244 241 229 222 213 201 190
325 318 315 314 310 307 306 305 301 297 293 292 291 288 285 283 280 276 273 273 268 265 262 261 260 255 247 252 252 250 250 250 255 263 262 248 239 230 221 217 210 201 192
327 319 320 318 316 311 309 306 302 299 296 294 290 285 285 286 281 276 274 274 271 268 265 260 257 256 253 250 249 249 248 248 247 257 259 248 236 218 209 207 198 192 188
325 321 323 320 318 313 311 309 305 303 300 299 295 291 288 286 284 280 276 275 274 271 266 260 256 252 250 247 248 245 247 251 247 248 252 243 225 206 196 186 181 177 174
322 322 324 321 319 315 314 312 309 305 303 305 300 296 291 285 284 295 292 282 277 272 266 260 256 254 269 267 265 257 249 245 245 240 242 240 223 198 194 183 173 160 159
321 324 327 323 322 322 318 315 311 308 308 305 301 299 295 294 358 333 296 289 282 273 269 263 257 241 238 238 253 264 269 257 254 247 238 237 230 212 196 185 170 162 166
321 323 326 326 323 322 319 317 315 313 309 305 302 299 295 298 296 283 278 281 277 273 270 264 259 248 230 238 226 226 237 245 250 255 249 243 234 218 200 194 191 181 168
319 323 326 324 323 322 317 316 316 312 310 307 305 302 298 300 279 276 279 269 269 266 262 259 257 259 248 251 244 234 232 224 224 230 239 242 245 234 217 203 194 172 148
323 326 327 324 321 318 318 319 317 313 310 308 305 303 301 302 292 281 283 277 269 267 263 257 252 246 227 236 241 240 235 227 208 197 233 245 279 238 231 207 187 174 170
326 324 321 317 315 314 315 315 314 309 306 307 307 303 301 303 303 282 286 283 283 278 265 252 236 240 215 223 238 239 234 228 223 194 193 204 211 209 212 222 210 192 177
320 316 313 313 310 309 310 309 308 307 311 309 308 304 300 300 289 265 279 285 293 289 280 269 236 175 201 225 248 252 246 246 228 222 212 211 208 208 209 215 220 217 199
312 311 312 312 311 316 312 308 307 307 304 303 305 308 308 301 293 285 268 271 292 288 284 284 267 156 202 226 238 233 223 239 233 224 223 217 210 209 210 212 207 216 225
307 308 310 310 308 307 308 309 305 303 309 321 322 323 326 329 306 215 245 259 267 275 287 314 294 223 224 223 221 219 222 227 227 224 224 222 215 206 200 203 205 207 212
303 307 305 303 308 319 312 315 320 323 326 324 324 326 326 328 337 341 315 270 244 246 252 233 215 222 234 238 200 206 223 227 226 227 226 219 210 201 198 200 199 194 200
302 303 303 305 316 310 311 317 315 328 337 311 319 321 324 327 355 345 318 314 317 327 311 271 249 227 220 214 215 220 219 214 217 223 222 217 209 206 203 196 195 197 204
296 303 306 308 317 313 316 315 235 249 249 243 253 275 298 301 311 306 299 291 289 291 283 258 250 242 233 226 221 218 218 220 225 225 220 218 213 208 204 201 199 203 208
292 300 303 307 311 311 314 316 318 277 226 230 236 243 257 290 296 291 288 287 277 258 252 262 262 254 244 237 237 231 223 216 217 224 223 220 218 214 211 209 207 207 210
283 283 279 290 298 304 311 311 312 320 324 311 220 220 238 261 275 277 277 276 253 225 247 266 275 270 263 254 248 242 232 219 213 217 220 221 219 214 212 213 214 213 210
281 288 300 301 294 296 304 305 308 315 320 325 330 220 214 247 247 249 250 263 290 293 278 270 269 265 261 256 252 251 244 236 227 223 220 220 220 218 219 219 215 204 216
260 252 270 289 291 294 300 304 310 315 317 323 332 340 340 315 305 271 253 284 289 288 293 289 280 271 266 259 255 247 240 234 228 227 226 222 220 220 219 221 223 212 212
274 258 228 262 281 296 301 303 307 309 314 322 333 6 337 315 323 329 321 316 310 311 311 305 295 282 270 254 253 252 247 237 229 231 227 225 224 220 222 220 217 221 217
268 272 272 278 289 292 302 299 301 303 307 313 321 313 220 284 319 327 328 321 319 317 316 313 308 303 295 288 264 253 251 247 233 226 226 224 224 224 223 222 218 218 218
259 264 267 270 276 277 272 282 296 301 305 312 320 321 316 318 318 323 322 323 324 323 321 310 299 301 309 300 286 265 264 259 247 237 231 223 220 221 222 222 221 219 219
252 258 264 268 271 278 283 290 291 295 304 311 316 316 318 318 313 322 319 321 322 322 321 317 314 318 317 308 295 286 290 296 278 249 238 235 225 221 217 218 222 223 222
249 253 256 259 265 272 279 284 287 292 294 302 314 319 320 318 322 331 334 329 325 326 326 325 324 315 312 309 314 331 356 329 305 290 249 239 232 225 220 219 219 219 219
243 248 253 256 257 263 270 274 279 289 295 301 307 309 314 319 330 337 341 340 330 330 327 328 330 325 318 310 326 335 329 307 289 284 272 248 236 227 221 223 223 222 218